Location: Newark
(50.2306°N, 14.0814°E)
Time: 02:07:55
(UTC+00:00)

N. Korean satellite - Pass Details

Date: 11 December 2019
Orbit: 454 x 507 km, 97.2° (Epoch: 23 January)

Event Time Altitude Azimuth Distance (km) Brightness Sun altitude
Rises 06:06:50 0° 0° (N) 2,560 10.0 -7.0°
Reaches altitude 10° 06:09:19 10° 343° (NNW) 1,664 8.9 -6.7°
Maximum altitude 06:11:55 19° 296° (WNW) 1,178 7.9 -6.3°
Drops below altitude 10° 06:14:29 10° 249° (WSW) 1,632 8.9 -6.0°
Sets 06:16:54 0° 231° (SW) 2,493 10.0 -5.6°
